Zurück zum Katalog

STARLINK-32899

AktivKommunikationVLEO
NORAD 62994·PAYLOAD·🇺🇸 United States

Gestartet Feb 11, 2025 von Cape Canaveral Space Force Station

Loading…

Nächste Überflüge (nächste 24 Stunden)

TLE

AktuellSource: CelesTrak SupGP

Epoche: Sep 14, 2026, 23:06 UTC

1 62994C 25031P   26257.96298611 -.00031373  00000+0 -11365-2 0  2578
2 62994  42.9993 154.8080 0001478 269.6154 234.6629 15.27589348    12

Verfolge STARLINK-32899 in Echtzeit mit AllMySat

Download on the App Store